Lid_Strength_Index
0 0 3 5 10 11 14 12 10 9 10 7 6 8 9 8 10 13 1 1 -0 0 -0 -1 -2 -2 -2 -2 -2 -2 -1 -0 -0 0 1 0 1 0 0 0 -0 -0 -1 -1 -1 -2 -1 -1 -1
3 3 4 7 12 16 13 11 10 9 7 6 6 6 8 9 5 4 3 0 -0 -0 -0 -0 -2 -2 -2 -2 -1 -1 -2 -1 -0 -0 -0 0 -0 1 1 0 -0 -0 -1 -1 -1 -2 -1 -1 -2
3 3 7 10 13 15 13 11 9 7 6 6 8 6 7 7 4 3 1 -0 -0 -0 -1 -1 -2 -2 -2 -2 -2 -1 -1 -1 -1 -0 -0 -1 -1 -0 1 1 0 -0 -1 -1 -1 -1 -2 -1 -2
5 6 8 12 14 11 11 10 8 8 7 6 6 9 5 3 3 2 0 0 0 -0 -1 -1 -2 -2 -2 -2 -2 -1 -1 -1 -1 -1 -1 -1 -1 -0 1 1 1 0 -1 -1 -1 -1 -1 -1 -1
6 8 13 14 13 10 9 7 7 8 8 7 6 9 7 3 1 1 0 0 1 -0 -0 -0 -2 -2 -2 -2 -1 -1 -1 -1 -1 -1 -1 -0 -0 -0 1 2 1 1 1 -0 -1 -1 -1 -1 -1
8 9 14 15 13 10 9 7 7 7 7 7 7 8 7 2 2 1 0 0 -0 0 0 -0 -1 -2 -2 -2 -2 -2 -2 -1 -1 -0 -0 1 0 -0 1 1 1 1 1 1 1 -0 -1 -0 -0
8 12 15 14 12 11 9 6 8 8 7 8 5 9 6 4 2 1 0 0 0 0 0 0 0 -1 -2 -2 -2 -2 -2 -1 -1 -1 -0 1 1 1 1 0 0 0 0 1 2 1 1 1 1
8 10 14 15 15 12 7 7 6 7 8 4 4 9 8 4 1 1 1 1 1 1 1 1 1 1 1 1 -1 -2 -1 -1 -1 -0 -0 -0 1 1 0 0 1 1 1 0 1 1 1 1 2
8 12 15 14 11 10 7 8 6 5 7 6 5 5 4 2 1 2 2 2 1 0 1 1 2 2 2 2 -0 -1 -2 -1 -1 -1 -1 -1 2 3 2 0 -0 0 1 1 2 2 1 1 2
11 14 13 11 8 9 8 7 7 8 8 7 6 4 3 2 3 3 4 3 3 2 2 2 2 1 2 0 2 1 1 1 1 1 2 2 2 3 2 0 -1 0 0 0 0 1 1 2 5
11 12 9 9 7 6 8 8 7 8 10 7 8 6 4 4 4 4 3 3 2 1 1 0 1 0 1 2 2 2 2 2 2 2 2 3 2 3 1 3 3 4 2 4 3 3 4 4 5
10 8 8 7 6 7 9 7 8 8 8 5 5 4 4 4 4 4 3 3 2 2 1 1 0 1 1 1 1 3 3 2 2 2 2 3 3 3 3 4 4 5 4 5 5 5 4 4 3
9 8 7 6 6 7 6 8 8 8 5 4 4 4 5 4 4 3 2 2 2 2 2 1 1 1 1 1 2 2 2 2 2 2 2 3 3 3 2 2 3 4 5 5 5 5 4 3 4
7 7 7 6 7 7 8 8 8 7 5 5 5 5 5 4 4 3 3 3 2 3 2 2 2 2 2 2 2 3 2 2 2 2 2 2 3 3 3 2 1 3 4 4 4 4 4 4 4
7 9 8 7 7 8 7 10 10 6 5 6 6 5 5 4 3 3 3 3 3 3 2 2 2 2 1 1 1 2 2 2 2 2 1 2 1 3 3 3 2 1 2 2 2 2 3 3 3
9 9 12 9 7 7 8 13 9 6 6 7 6 5 5 4 4 3 3 3 3 3 2 2 0 0 0 1 1 1 2 2 2 2 2 1 1 2 3 3 2 2 2 1 2 3 2 2 2
11 13 12 11 8 8 9 12 8 6 7 7 7 6 6 7 6 5 5 3 3 2 2 2 2 1 1 2 2 2 0 1 1 1 -0 0 0 -0 1 1 1 1 2 2 1 2 3 4 4
12 12 14 12 10 9 10 11 8 7 7 7 7 6 7 6 5 5 4 4 4 4 3 3 3 3 3 3 2 2 2 2 1 0 1 1 2 0 0 1 1 0 1 1 1 2 1 2 3
9 11 12 11 9 9 10 11 9 8 8 9 8 8 8 7 6 5 4 4 5 5 4 4 5 5 3 3 3 4 4 4 5 4 3 4 4 4 4 4 4 3 2 1 1 3 2 3 4
9 11 12 10 8 9 11 11 9 9 8 8 9 9 9 8 6 6 6 6 6 7 6 6 6 6 6 6 6 6 6 6 6 6 6 5 5 5 5 5 6 6 6 5 4 3 4 4 3
10 10 11 11 10 10 10 13 12 9 9 8 8 8 8 8 8 7 7 8 7 7 7 7 6 5 5 5 5 5 6 6 7 7 7 6 6 6 6 7 7 7 7 7 7 6 6 5 4
11 8 9 10 12 15 10 17 12 10 10 9 8 9 9 9 9 9 9 8 8 8 7 7 6 5 5 6 6 7 7 8 7 7 7 7 7 7 7 7 7 7 7 8 8 6 7 7 7
10 9 10 10 12 13 12 14 13 9 11 10 10 9 10 10 10 10 9 9 8 8 8 8 6 6 6 7 7 8 8 8 8 8 8 9 9 8 8 8 9 9 8 8 7 7 7 7 8
8 10 10 11 12 17 12 14 15 12 10 9 9 9 10 10 10 9 9 8 8 9 8 8 7 7 7 7 8 8 9 9 9 9 10 10 9 10 10 9 10 9 10 10 9 9 8 8 7
10 13 17 18 19 19 12 15 15 11 8 8 10 10 10 10 10 10 10 9 8 8 8 7 7 7 8 8 8 8 8 9 9 9 10 10 11 11 10 10 10 10 10 10 10 10 10 10 9
11 12 17 20 21 19 13 18 15 9 8 8 8 9 9 10 10 9 9 9 8 7 7 7 7 8 8 8 8 8 8 9 9 9 10 11 11 11 10 10 10 9 9 10 10 11 11 10 11
11 13 10 15 14 18 16 14 10 9 9 9 9 9 10 10 9 9 9 9 8 7 7 7 7 8 8 9 9 9 9 10 10 9 10 11 11 10 10 10 10 10 10 10 11 12 12 10 9
9 9 14 15 20 22 18 17 17 12 9 9 9 10 10 10 9 9 9 9 7 7 7 7 7 8 8 9 8 8 9 9 9 10 10 10 11 11 10 10 11 11 11 11 12 12 11 11 11
11 13 13 13 18 21 21 18 11 10 9 9 9 9 10 10 10 10 9 9 8 7 7 8 8 8 9 8 8 9 9 9 10 10 9 10 10 10 10 10 11 11 11 11 12 11 10 9 9
10 12 13 18 19 16 17 17 8 8 8 7 9 9 9 9 9 9 9 9 8 7 7 8 8 8 8 8 7 9 9 10 10 8 8 9 9 10 10 10 11 11 11 11 10 10 9 10 9